Find Starlink 4383

NORAD ID: 53473 Int'l Des: 2022-099 Owner: SPXS Country: US Constellation: starlink operational
LEOCIRCULARRETROGRADESSO

現在のビュー

3D地球を読み込み中...

About Starlink 4383

Starlink 4383 (NORAD 53473) is a starlink constellation satellite (v1.5) launched Aug 12, 2022 by SPXS of US. It operates in LEO, CIRCULAR, RETROGRADE, SSO orbit with a mass of 300.00 kg.

Starlink 4383について

説明を読み込み中...

次回通過

Passes for default location (London). Set your location on the main map for personalized predictions.

高度履歴

Loading altitude history...

軌道要素

1 53473U 22099J 26167.58334491 .00078168 00000-0 20828-2 0 9995
2 53473 97.6014 290.0805 0000936 92.7891 73.2893 15.37877705 5680
Epoch: Jun 16, 2026 • Age: 9 hours

現在のステータス

高度 454.5 km
速度 7.64 km/s
衛星直下点 17.53°N, 41.95°E
打ち上げ日 Aug 12, 2022
運用期間 3.8 years
タイプ internet

技術仕様

分類 Payload
質量 300.00 kg
乾燥質量 275.00 kg
総質量 300.00 kg
長さ 0.20 m
直径 2.80 m
スパン 9.00 m
形状 Box + pan
製造者 SPXS
バスタイプ Starlink
フェーズステータス In Orbit
所有者/国 SPXS/US

Most Searched